Home > Weather > Berkeley > Past weeks

Flag for USA Past Weather in Berkeley, California, USA — Yesterday and Last 2 Weeks

Now
70 °F

Sunny.


Feels Like: 76 °F
Forecast: 57 / 73 °F
Wind: 10 mph from West

Location: Metro Oakland International Airport

Current Time: Jul 29, 2016 at 12:59:55 PM

Latest Report: Jul 29, 2016 at 11:53 AM


Visibility: 10 mi

Pressure: 29.86 "Hg

Humidity: 61%

Dew Point: 56 °F

Location of BerkeleyLocation

Past Weather in Berkeley — Graph

°F

Berkeley Temperature Yesterday

Maximum temperature yesterday: 72 °F (at 1:53 PM)
Minimum temperature yesterday: 56 °F (at 4:53 AM)
Average temperature yesterday: 62 °F

High & Low Weather Summary for the Past Weeks

 TemperatureHumidityPressure
High83 °F (Jul 26, 1:53 PM)97% (Jul 26, 5:53 AM)30.13 "Hg (Jul 26, 5:53 AM)
Low54 °F (Jul 23, 5:53 AM)38% (Jul 26, 4:53 PM)29.82 "Hg (Jul 26, 5:53 PM)
Average63 °F73%29.96 "Hg
* Reported Jul 14 10:53 AM — Jul 29 10:53 AM, Berkeley, Weather by CustomWeather, © 2016

Note: Actual official high and low records may vary slightly from our data, if they occured in-between our weather recording intervals... More about our weather records

Advertising

Berkeley Weather History for the Previous 24 Hours

Scroll right to see more
 ConditionsComfort  
Time TempWeatherWind HumidityBarometerVisibility
10:53 AM
Fri, Jul 29
66 °FSunny.8 mph70%29.87 "Hg10 mi
9:53 AM63 °FSunny.8 mph75%29.87 "Hg10 mi
8:53 AM60 °FPassing clouds.7 mph83%29.88 "Hg10 mi
7:53 AM59 °FScattered clouds.7 mph87%29.88 "Hg10 mi
6:53 AM57 °FPassing clouds.8 mph90%29.87 "Hg10 mi
5:53 AM57 °FPassing clouds.7 mph90%29.86 "Hg10 mi
4:53 AM57 °FPassing clouds.5 mph90%29.85 "Hg10 mi
3:53 AM57 °FLow clouds.5 mph90%29.85 "Hg10 mi
2:53 AM57 °FLow clouds.10 mph93%29.85 "Hg10 mi
1:53 AM57 °FPassing clouds.6 mph90%29.85 "Hg10 mi
12:53 AM58 °FPassing clouds.6 mph90%29.86 "Hg10 mi
11:53 PM
Thu, Jul 28
59 °FPassing clouds.6 mph84%29.87 "Hg10 mi
10:53 PM58 °FPassing clouds.9 mph87%29.88 "Hg10 mi
9:53 PM59 °FPassing clouds.9 mph84%29.88 "Hg10 mi
8:53 PM59 °FPassing clouds.10 mph84%29.86 "Hg10 mi
7:53 PM60 °FPassing clouds.15 mph80%29.85 "Hg10 mi
6:53 PM64 °FPassing clouds.16 mph73%29.84 "Hg10 mi
5:53 PM67 °FPassing clouds.17 mph66%29.84 "Hg10 mi
4:53 PM69 °FPassing clouds.22 mph61%29.85 "Hg10 mi
3:53 PM70 °FPassing clouds.20 mph61%29.86 "Hg10 mi
2:53 PM72 °FPassing clouds.20 mph55%29.88 "Hg10 mi
1:53 PM72 °FPassing clouds.12 mph55%29.89 "Hg9 mi
12:53 PM70 °FPassing clouds.13 mph61%29.91 "Hg10 mi
Weather by CustomWeather, © 2016

See weather overviewHow to use our weather pages